Temp_Advection
nan nan nan nan nan nan nan nan nan nan nan nan nan nan nan nan nan nan nan nan nan nan nan nan nan nan nan nan nan nan nan nan nan nan nan nan nan nan nan nan nan nan nan nan nan
nan -2 -2 -2 -2 -2 -2 -3 -2 -1 -0 -1 -1 -1 -0 -1 -1 -2 -1 1 1 0 -0 -0 0 0 0 0 0 -0 0 -1 -0 -0 0 -0 0 0 0 -0 0 0 0 0 nan
nan -1 -2 -1 -1 -1 -1 -1 -2 -3 -2 -1 -1 -1 -0 -1 -3 -1 0 0 1 0 -0 -0 0 0 0 0 0 -0 -0 -0 -0 0 0 0 0 0 0 -0 -0 -0 -0 0 nan
nan -1 -1 -1 -1 -1 -1 -1 -1 -1 -2 -2 -2 -1 -0 -0 -1 -0 -0 0 0 0 -0 0 0 0 0 0 0 -0 -1 -1 -0 -0 0 0 0 0 0 -0 0 -0 0 -0 nan
nan -0 -0 -0 -1 -1 -0 0 -0 -0 -1 -1 -1 -1 -0 -1 -4 -2 0 0 0 -0 -0 -0 -0 -0 -0 -0 0 -0 -0 -0 -0 0 0 0 0 0 -0 -0 0 0 0 0 nan
nan -0 -0 -0 0 0 0 1 1 1 1 0 0 -0 -0 -2 -3 0 0 -0 -0 -0 0 -0 -0 -0 -0 0 -0 -0 -0 0 0 0 0 0 0 0 -0 -0 0 0 0 0 nan
nan -0 -0 0 1 0 -0 -0 1 1 1 0 1 0 -1 -4 -0 0 0 0 0 0 0 0 0 0 0 0 -0 0 0 0 0 -0 0 -0 0 -0 -2 0 0 0 0 0 nan
nan -0 -0 0 1 1 -0 -1 -0 0 1 1 1 0 -1 -2 -1 -0 0 0 0 0 0 0 0 0 0 0 -0 0 -0 0 -0 0 0 0 0 -0 -0 0 0 0 1 1 nan
nan 0 0 0 -0 0 0 -1 -1 -0 -0 1 1 -1 -1 -0 -1 -1 -0 -0 0 0 0 0 0 1 0 -0 -0 -0 0 -0 -0 0 0 0 -0 -0 -0 0 0 0 0 1 nan
nan 0 0 -1 -0 -0 0 -1 -2 -0 -1 -1 0 -0 -1 -0 -0 -0 -0 -0 0 0 1 0 0 -0 -0 0 -0 -0 -0 -0 -0 -0 0 0 -0 -0 0 0 0 1 1 1 nan
nan -0 -0 -1 -0 -0 -0 -1 -1 -0 -1 -0 -1 -1 -2 -1 -0 -0 0 0 1 1 0 0 0 0 -0 -0 -0 -0 -0 -0 -0 0 -0 0 -0 0 -0 0 0 1 1 1 nan
nan -0 -0 -1 -1 -1 -0 -0 -0 -1 -1 -1 -1 -1 -1 -0 -0 -0 0 0 0 0 0 -0 -0 -0 -0 -0 -0 0 -0 -0 -0 0 -0 -0 0 0 -0 0 1 2 1 1 nan
nan -0 -0 -0 -1 -1 -0 -0 0 -0 -0 -1 -0 -0 -1 0 0 -1 -0 -0 -0 -0 0 -0 -0 -0 -0 -0 0 0 -0 -0 -0 -0 -0 -0 0 0 -0 -0 0 1 1 1 nan
nan -0 -0 -0 -1 -0 -0 -0 0 -0 -0 -0 -0 0 0 0 -0 -1 -0 0 -0 -0 -0 -0 -0 0 -0 -0 -0 -0 -0 -0 0 -0 0 -0 0 -0 0 -0 -0 0 1 0 nan
nan 0 -0 0 -0 -0 -0 -0 0 0 -0 -0 0 -0 -0 -0 -0 -0 0 1 -0 -0 -0 -0 -0 -0 0 0 -0 0 0 0 -0 -0 -0 -0 -0 -0 0 0 -0 0 0 0 nan
nan 0 0 0 0 0 -0 0 -0 -1 -1 -1 -0 -0 -0 -0 -0 -0 1 0 0 -0 -0 -0 -0 -0 -0 -0 0 0 -0 -1 -0 -0 -0 -0 0 0 -0 -0 0 0 0 0 nan
nan 0 0 0 -0 -0 -0 -0 -0 0 -0 -0 -0 -0 0 -0 -0 -0 -0 0 0 0 0 0 -0 -0 -0 -0 -0 -0 -1 -0 -0 0 -0 -0 0 -0 -0 0 0 -0 0 0 nan
nan 1 0 0 0 -0 0 -1 0 -0 -0 -0 -0 -0 -0 0 0 0 0 0 -0 0 0 0 0 -0 -0 -0 0 -0 -0 -1 0 0 -0 -0 -0 0 0 -0 1 -0 0 0 nan
nan -0 0 0 0 0 -0 -0 -1 -0 -0 -0 -0 -0 -0 -0 -0 0 0 -0 -0 -0 -0 0 0 0 -0 0 -0 -0 -0 -0 -0 -0 0 -0 0 -0 -0 -0 0 1 0 -0 nan
nan -1 -0 0 0 0 -0 -0 -0 -0 0 0 -0 -0 0 -0 -0 -0 -0 -0 0 0 -0 -0 0 -0 0 0 -0 -0 0 -0 0 0 -0 -0 0 0 0 0 0 0 -0 0 nan
nan -1 -0 0 -0 -0 -0 -0 -0 -1 -0 -0 0 -0 0 0 -0 -0 -0 -0 -0 0 -0 -0 0 -0 0 0 0 -0 -0 0 -0 -0 0 -0 0 1 1 1 0 -1 -0 -0 nan
nan -0 -1 -0 -1 -0 -0 -1 -0 -0 -0 -0 -0 0 0 0 -0 -0 -0 -0 0 0 0 0 -0 0 0 0 -0 -0 -0 -0 -0 0 -0 0 0 0 0 0 -0 -1 0 0 nan
nan -0 -0 -0 -0 -0 -0 -0 -0 -0 -0 -0 -0 -0 0 0 -0 0 -0 -0 -0 -0 -0 0 0 0 -0 -0 -0 0 0 -0 -0 -0 -0 0 0 -0 -0 0 -1 0 0 0 nan
nan -0 -0 -0 0 -0 -0 -0 -0 -1 -0 -0 -0 -0 -0 -0 -0 0 -0 -0 -0 0 -0 -0 -0 0 0 0 0 0 -0 0 -0 -0 -0 -0 -0 0 0 0 -0 0 0 0 nan
nan 0 -0 0 -0 -0 -0 -0 -0 -0 -0 -0 -0 -0 0 -0 0 0 -0 -0 -0 -1 -1 -0 -0 0 -0 -0 -0 0 -0 0 0 -0 -0 0 0 0 0 -0 -0 0 1 0 nan
nan 0 -0 0 1 -0 -0 -0 -0 -0 -0 -0 -0 -0 -0 0 -0 0 0 0 0 -0 -0 -0 0 -0 -0 -0 0 -0 0 0 -0 0 0 -0 -0 -0 0 -0 0 0 0 0 nan
nan nan nan nan nan nan nan nan nan nan nan nan nan nan nan nan nan nan nan nan nan nan nan nan nan nan nan nan nan nan nan nan nan nan nan nan nan nan nan nan nan nan nan nan nan
Wind_Speed
23 24 25 25 25 25 24 23 23 22 22 23 24 25 23 20 22 21 24 14 14 15 12 9 11 13 13 9 9 6 2 3 4 4 2 1 2 2 5 8 4 4 7 7 31
24 24 23 23 23 24 25 28 27 25 23 24 24 24 25 22 24 30 25 19 17 15 19 16 14 15 9 8 8 5 4 8 5 1 1 2 2 4 4 5 4 8 7 16 29
25 25 25 26 25 27 28 24 27 28 27 24 23 23 23 19 23 19 4 5 17 18 17 15 12 16 7 8 8 7 6 5 4 3 2 1 1 1 6 3 8 12 18 24 28
25 28 27 27 27 28 27 27 27 25 25 25 23 22 19 13 6 2 3 4 12 16 21 19 18 10 6 6 12 4 10 10 4 4 3 4 4 2 6 2 9 4 14 23 27
26 27 27 28 29 29 29 31 32 30 26 24 22 19 14 10 27 20 7 7 13 18 22 24 17 11 6 6 8 4 4 11 17 6 6 5 6 6 7 10 5 9 17 22 24
26 26 27 29 29 30 30 33 33 31 31 25 21 18 13 17 24 10 16 17 16 17 19 22 13 16 8 5 6 2 8 7 4 3 4 5 6 6 7 14 16 11 21 24 23
27 26 28 30 31 32 33 38 34 32 30 24 20 17 18 40 8 8 13 18 20 19 20 21 17 12 7 2 3 2 4 3 6 5 5 1 6 7 22 18 10 16 20 25 24
26 27 29 31 32 33 34 34 32 28 26 22 17 15 20 19 16 23 21 23 18 18 15 16 15 12 6 2 3 2 4 1 3 2 4 12 9 6 6 13 22 15 25 25 24
27 29 31 32 34 32 34 30 33 18 18 13 11 13 14 10 15 27 29 22 18 15 11 11 14 7 6 6 3 4 3 4 6 6 5 6 5 4 4 11 16 15 18 22 21
29 31 33 34 36 34 35 29 32 7 12 10 3 4 15 11 16 10 26 24 20 14 12 8 3 3 2 4 9 6 4 4 5 2 4 6 6 4 2 10 15 14 12 18 21
30 32 34 36 37 36 30 35 17 7 22 18 25 20 36 23 10 9 22 23 19 16 5 4 3 9 6 7 4 5 5 6 3 4 5 7 6 8 10 8 7 10 13 20 22
34 33 34 37 36 26 17 12 13 21 20 31 35 38 34 24 9 3 20 15 10 5 4 3 8 6 7 5 5 5 4 5 4 2 4 4 8 9 3 4 10 16 16 22 24
35 33 35 34 33 24 22 8 21 20 7 23 14 14 17 24 15 24 15 15 6 7 6 6 6 10 8 6 8 6 7 5 4 3 5 3 5 4 2 3 6 8 15 18 22
34 35 36 32 19 25 15 24 19 15 4 7 4 4 4 7 11 30 12 20 4 10 7 6 13 9 9 7 7 6 6 8 5 4 3 1 4 4 3 1 3 6 12 16 16
34 35 34 21 21 23 24 22 17 8 3 5 5 6 10 8 2 15 26 17 8 8 6 7 3 8 5 6 6 3 3 5 4 4 2 4 3 6 5 3 4 6 11 13 13
34 34 33 15 19 26 22 22 6 5 4 6 6 9 5 6 4 6 17 15 5 2 3 3 3 2 4 4 3 9 6 8 5 3 3 5 6 4 3 6 4 5 13 13 11
33 35 23 13 18 28 17 11 4 4 5 9 6 8 8 1 5 3 1 3 5 6 5 4 3 2 5 7 7 5 6 3 2 1 5 2 3 7 3 2 7 10 16 12 7
33 33 11 16 22 23 17 4 4 2 3 5 6 4 6 9 1 2 5 5 4 3 3 5 4 2 2 5 6 2 5 5 7 4 3 2 5 5 3 4 11 16 12 7 5
32 29 13 21 28 14 9 4 5 3 7 7 9 4 4 2 3 2 7 5 3 3 6 4 3 3 2 3 4 4 2 4 5 1 2 3 3 1 3 3 6 8 6 5 5
34 25 13 23 24 9 4 4 3 4 6 3 5 3 3 4 2 4 8 1 4 2 1 3 5 2 2 4 5 4 5 3 3 2 3 4 3 4 6 8 6 5 6 4 5
26 11 13 22 14 6 1 4 6 15 15 3 3 4 4 3 3 0 3 3 1 4 4 3 3 3 1 2 6 2 2 3 3 4 4 1 4 4 8 8 9 7 3 5 8
16 3 15 22 6 4 3 8 10 7 7 3 3 3 2 3 6 4 4 6 13 2 4 1 5 3 2 1 1 2 3 4 4 5 1 3 5 3 4 6 10 7 4 6 9
14 6 11 15 3 5 7 8 4 4 6 5 4 4 3 3 4 5 3 6 13 5 2 2 2 3 3 3 4 2 3 4 4 3 5 4 4 2 3 0 8 9 7 9 9
6 3 7 6 11 3 7 4 10 14 4 6 4 7 5 4 4 2 3 5 7 7 10 3 2 5 5 5 3 1 2 3 5 3 3 5 3 3 5 6 6 11 8 8 8
4 3 3 5 6 7 6 3 7 7 7 11 4 7 4 3 4 3 2 2 6 8 6 4 3 3 1 3 3 3 4 3 5 5 6 5 6 5 6 7 7 6 7 6 9
3 4 4 11 12 5 5 4 6 8 4 4 4 7 6 4 4 1 3 2 3 4 3 4 2 2 4 3 2 4 7 7 4 4 7 3 8 7 3 6 7 9 6 7 9
2 4 6 7 5 3 2 6 10 14 6 1 6 4 1 3 9 6 6 8 5 4 2 3 2 2 3 4 3 5 6 4 2 3 5 8 6 2 4 6 10 10 7 7 8
Wind_Direction
340 336 332 327 323 319 316 315 314 315 315 315 316 315 313 306 294 282 268 288 257 227 233 225 197 187 183 189 175 165 90 227 260 189 219 136 131 93 113 129 111 126 141 155 161
334 332 328 328 329 326 324 318 309 306 307 309 310 312 312 313 301 289 295 262 224 220 222 216 207 181 175 191 187 143 155 219 220 183 197 47 113 155 147 138 90 133 138 155 167
341 339 335 329 327 322 319 313 314 311 304 302 305 308 315 317 312 292 243 238 206 208 216 222 224 184 189 176 188 181 191 208 262 114 159 137 112 178 142 222 193 180 159 165 173
343 340 339 336 333 330 326 324 314 308 308 305 302 304 311 304 269 306 272 199 190 195 201 210 193 192 178 189 199 171 222 225 254 303 202 198 178 268 204 186 129 157 185 179 181
346 343 341 338 337 333 328 324 318 313 302 298 301 303 313 270 252 264 226 189 188 202 208 197 193 189 179 192 201 207 229 238 247 255 230 202 217 214 239 221 202 177 187 196 194
345 343 342 339 337 334 333 331 322 317 308 303 292 297 282 257 279 250 217 229 199 196 202 208 210 202 201 225 166 192 221 236 246 188 248 200 248 189 234 245 236 190 195 199 203
347 343 338 339 337 335 333 332 326 323 312 296 283 287 258 241 240 230 214 224 219 219 226 229 209 186 171 180 188 187 201 249 216 236 224 165 273 231 251 248 241 208 201 200 207
346 344 339 339 340 338 329 331 336 328 314 293 273 271 254 266 259 248 213 212 212 215 223 230 218 211 181 143 30 125 67 203 268 229 229 166 254 275 261 244 243 212 203 204 208
345 345 343 342 337 338 327 323 334 332 334 303 248 227 261 287 270 248 201 201 190 194 191 194 195 182 147 106 11 349 227 213 304 215 151 176 254 252 274 220 197 187 182 199 198
344 345 342 339 336 337 327 319 329 321 344 7 252 268 263 295 281 271 200 195 187 174 150 176 146 119 99 134 211 195 211 226 207 194 170 178 230 253 147 162 190 199 190 181 179
342 344 342 337 336 336 329 335 1 333 316 284 270 261 276 286 291 254 193 190 189 167 146 176 140 207 183 197 159 176 191 201 244 229 150 208 235 231 249 252 218 193 181 167 163
342 344 341 336 336 338 334 353 357 320 304 289 271 271 265 262 295 341 181 170 152 152 144 122 242 210 201 193 204 222 258 270 278 232 152 174 241 254 310 231 232 204 178 169 167
343 342 340 337 338 344 351 344 325 319 285 296 281 259 262 245 226 259 206 181 130 150 178 187 237 181 187 191 208 222 206 208 214 14 17 30 290 283 359 80 107 139 171 168 175
345 341 341 340 344 342 347 330 328 328 296 281 295 306 307 202 204 235 236 185 159 179 166 217 254 250 204 203 190 214 185 187 168 125 217 44 266 285 184 107 83 136 162 167 174
344 339 341 345 329 342 334 332 322 315 335 318 348 360 332 181 211 198 207 198 171 173 157 230 237 205 164 196 158 186 121 111 98 98 60 334 54 265 120 231 184 191 170 171 170
343 338 337 339 343 338 328 329 329 43 269 331 332 337 7 307 26 11 165 223 118 87 279 189 326 97 138 67 153 144 74 44 54 73 353 233 155 267 185 201 161 171 175 165 165
343 340 332 338 334 340 334 339 32 120 327 328 313 336 321 315 16 69 358 117 160 181 189 140 300 40 105 76 27 79 78 20 17 319 227 228 98 251 311 279 186 172 175 173 197
342 342 339 347 344 339 342 43 69 239 313 290 287 342 16 5 158 133 134 174 247 163 131 148 186 245 28 148 171 160 135 151 194 195 256 127 227 259 321 327 145 154 157 175 251
344 345 357 352 343 346 344 35 210 297 304 300 327 14 350 20 345 331 187 200 186 184 139 123 106 91 353 91 126 180 145 170 101 315 48 223 283 11 105 60 110 143 169 214 257
345 343 359 348 341 342 57 279 275 319 315 326 356 31 332 305 315 235 178 179 145 210 357 147 116 32 155 113 45 111 156 78 8 125 244 271 242 231 208 197 196 219 242 257 290
351 346 353 350 348 10 43 263 298 294 308 331 316 295 286 309 280 27 34 39 1 121 82 127 100 276 133 156 159 89 34 54 124 138 169 252 264 219 205 190 188 217 233 295 294
355 353 342 356 31 342 307 300 304 293 338 332 332 301 309 320 346 53 41 20 354 156 128 245 123 117 148 71 6 160 182 148 126 262 122 155 276 330 225 178 175 207 248 282 291
348 309 344 2 30 343 310 303 284 312 328 344 316 352 301 313 45 21 56 11 15 44 93 323 348 67 18 28 2 207 178 123 115 99 204 151 263 77 98 359 225 249 275 297 311
10 343 334 10 2 326 317 332 334 327 318 348 314 351 354 24 31 59 34 19 7 37 35 69 86 138 170 190 145 111 298 170 130 153 190 227 247 247 230 237 234 226 255 290 298
19 313 346 310 327 318 299 305 332 345 331 360 5 354 329 358 9 85 61 12 8 7 20 81 100 79 306 232 157 207 210 178 183 200 186 241 202 238 217 221 267 212 237 276 282
8 347 327 290 291 333 343 331 324 337 265 351 358 342 7 40 5 243 136 160 217 350 50 351 101 100 353 24 211 247 240 222 207 224 254 217 261 209 189 157 178 209 236 260 287
323 296 295 285 314 46 283 321 313 318 270 336 333 315 349 48 2 30 69 73 95 122 58 81 107 80 283 10 10 334 232 200 247 251 197 237 252 197 197 213 212 219 240 275 296
Height
1523 1520 1517 1513 1510 1507 1504 1502 1499 1495 1492 1489 1485 1482 1479 1475 1472 1471 1465 1466 1467 1470 1472 1473 1472 1472 1475 1478 1479 1482 1492 1493 1482 1478 1472 1469 1469 1471 1472 1473 1476 1477 1477 1478 1483
1521 1517 1513 1510 1507 1503 1499 1497 1494 1491 1487 1485 1482 1479 1475 1472 1468 1462 1462 1458 1460 1466 1468 1470 1471 1470 1472 1475 1477 1477 1490 1484 1473 1472 1473 1471 1470 1471 1473 1473 1476 1476 1476 1478 1482
1519 1515 1510 1505 1501 1497 1493 1492 1489 1486 1482 1481 1478 1475 1472 1470 1465 1455 1455 1454 1456 1460 1466 1469 1470 1469 1470 1471 1473 1474 1478 1473 1472 1471 1472 1473 1472 1472 1471 1474 1473 1473 1475 1478 1481
1517 1512 1508 1504 1500 1494 1490 1487 1483 1480 1479 1475 1473 1471 1469 1469 1469 1455 1455 1455 1456 1458 1461 1465 1467 1468 1467 1469 1467 1473 1469 1468 1469 1470 1471 1472 1472 1473 1472 1471 1472 1473 1474 1476 1478
1514 1509 1505 1500 1495 1490 1485 1481 1478 1474 1470 1471 1468 1468 1465 1465 1450 1453 1454 1455 1454 1457 1458 1460 1463 1464 1465 1464 1465 1467 1467 1466 1467 1468 1469 1470 1470 1471 1470 1472 1471 1472 1474 1475 1478
1513 1508 1503 1498 1492 1487 1482 1476 1472 1466 1465 1463 1464 1462 1465 1457 1443 1445 1448 1452 1452 1455 1456 1458 1459 1461 1461 1461 1464 1463 1463 1464 1464 1466 1467 1468 1468 1468 1466 1468 1470 1470 1471 1473 1476
1511 1505 1501 1494 1490 1484 1479 1472 1466 1461 1457 1456 1456 1457 1454 1428 1441 1443 1444 1446 1450 1452 1454 1457 1457 1458 1459 1461 1460 1461 1464 1464 1463 1463 1464 1465 1466 1464 1461 1464 1465 1466 1468 1471 1475
1507 1502 1498 1491 1486 1480 1474 1468 1462 1456 1450 1447 1448 1450 1439 1432 1437 1435 1441 1443 1445 1449 1451 1452 1456 1457 1457 1459 1460 1461 1464 1467 1459 1458 1459 1463 1464 1458 1458 1460 1461 1463 1465 1468 1472
1505 1499 1495 1488 1484 1476 1470 1464 1458 1452 1446 1440 1441 1445 1436 1432 1429 1428 1435 1439 1443 1446 1448 1451 1454 1454 1457 1462 1468 1466 1471 1468 1463 1455 1457 1461 1464 1456 1454 1455 1459 1462 1464 1467 1470
1504 1498 1492 1486 1480 1473 1465 1460 1453 1449 1445 1441 1441 1445 1434 1429 1426 1423 1428 1437 1440 1443 1447 1450 1451 1455 1458 1463 1465 1467 1471 1465 1462 1455 1456 1460 1460 1457 1455 1456 1458 1462 1465 1467 1468
1502 1495 1490 1483 1477 1471 1462 1456 1453 1449 1445 1448 1440 1436 1425 1426 1426 1423 1427 1433 1437 1441 1447 1448 1455 1454 1455 1455 1457 1458 1461 1460 1455 1452 1456 1459 1458 1456 1455 1457 1459 1460 1463 1466 1468
1501 1494 1487 1481 1473 1468 1465 1463 1464 1462 1440 1434 1426 1424 1424 1425 1428 1423 1426 1431 1434 1442 1444 1450 1452 1451 1451 1455 1457 1458 1461 1459 1455 1452 1454 1456 1459 1454 1453 1455 1456 1457 1460 1464 1466
1499 1492 1485 1477 1472 1468 1465 1464 1463 1458 1452 1422 1418 1416 1415 1419 1425 1422 1427 1428 1433 1440 1443 1445 1441 1441 1450 1453 1455 1457 1461 1459 1455 1454 1455 1457 1463 1463 1457 1457 1456 1457 1460 1463 1466
1495 1492 1482 1475 1470 1466 1464 1463 1460 1457 1451 1430 1418 1416 1414 1415 1418 1420 1424 1427 1432 1439 1443 1445 1439 1441 1446 1449 1450 1453 1448 1450 1452 1461 1476 1462 1481 1458 1457 1461 1459 1459 1461 1463 1466
1493 1490 1482 1475 1470 1466 1464 1460 1458 1456 1477 1424 1420 1418 1416 1417 1414 1415 1421 1425 1429 1431 1438 1442 1435 1438 1441 1441 1443 1448 1448 1451 1456 1471 1469 1470 1489 1461 1459 1463 1461 1461 1462 1464 1465
1492 1488 1481 1475 1471 1467 1461 1457 1456 1469 1479 1429 1424 1421 1418 1415 1414 1416 1419 1428 1426 1429 1431 1434 1433 1433 1437 1441 1441 1447 1453 1461 1467 1474 1500 1484 1475 1461 1464 1459 1458 1461 1461 1463 1465
1489 1485 1479 1474 1470 1464 1459 1457 1469 1481 1441 1436 1429 1424 1424 1421 1417 1419 1424 1427 1434 1436 1438 1438 1436 1435 1436 1443 1445 1450 1460 1504 1480 1481 1491 1476 1477 1460 1452 1452 1453 1456 1459 1462 1463
1488 1482 1478 1474 1470 1464 1460 1461 1483 1451 1448 1436 1430 1426 1426 1426 1424 1424 1427 1429 1431 1432 1441 1442 1440 1440 1438 1441 1447 1452 1456 1486 1499 1500 1479 1464 1475 1454 1458 1455 1453 1457 1460 1461 1461
1484 1480 1478 1474 1469 1465 1463 1478 1470 1456 1448 1440 1431 1431 1433 1428 1430 1426 1430 1430 1428 1426 1434 1445 1443 1441 1442 1440 1445 1454 1468 1461 1482 1484 1481 1464 1457 1458 1459 1459 1458 1459 1459 1460 1461
1482 1477 1478 1474 1468 1466 1468 1466 1456 1449 1445 1441 1440 1436 1439 1431 1430 1424 1424 1425 1427 1428 1428 1435 1449 1442 1442 1442 1446 1447 1453 1470 1486 1508 1493 1463 1455 1456 1460 1460 1459 1459 1458 1458 1458
1481 1478 1479 1474 1469 1468 1475 1467 1457 1449 1447 1443 1442 1442 1435 1436 1429 1420 1427 1429 1429 1429 1430 1436 1446 1452 1443 1445 1448 1454 1467 1463 1468 1479 1492 1484 1455 1456 1454 1455 1457 1456 1456 1456 1455
1483 1484 1479 1475 1475 1474 1475 1467 1459 1450 1444 1443 1441 1437 1437 1433 1431 1428 1429 1428 1429 1429 1433 1433 1447 1467 1446 1446 1446 1448 1450 1456 1472 1488 1487 1488 1460 1452 1451 1452 1454 1454 1455 1454 1453
1486 1483 1480 1478 1488 1479 1472 1467 1461 1454 1448 1445 1442 1439 1436 1437 1440 1433 1433 1436 1433 1432 1438 1436 1453 1471 1456 1451 1450 1448 1449 1457 1468 1479 1486 1476 1459 1452 1452 1453 1453 1453 1452 1452 1451
1491 1490 1483 1481 1483 1483 1476 1467 1462 1454 1451 1449 1445 1440 1440 1440 1439 1437 1437 1438 1436 1435 1435 1436 1449 1457 1460 1461 1462 1464 1464 1455 1461 1471 1485 1471 1455 1451 1452 1454 1451 1451 1451 1450 1451
1494 1493 1492 1488 1483 1481 1477 1472 1466 1463 1454 1450 1447 1447 1445 1452 1445 1441 1439 1440 1439 1438 1438 1442 1458 1460 1448 1449 1455 1454 1463 1467 1468 1457 1459 1461 1463 1454 1450 1450 1448 1449 1449 1450 1449
1494 1495 1492 1489 1483 1482 1477 1473 1468 1464 1461 1453 1452 1449 1447 1446 1445 1447 1448 1448 1446 1444 1448 1447 1454 1457 1462 1447 1453 1454 1450 1454 1459 1452 1455 1458 1453 1445 1446 1447 1448 1447 1447 1447 1447
1493 1494 1493 1488 1484 1485 1480 1475 1469 1466 1456 1454 1454 1451 1450 1450 1449 1447 1445 1443 1443 1448 1452 1453 1458 1462 1479 1459 1470 1466 1461 1456 1452 1451 1445 1448 1442 1443 1445 1445 1444 1445 1446 1445 1443